Regional Weather Roundup
Issued by NWS Wakefield, VA

Home | Current Version | Previous Version | Text Only | Print | Product List | Glossary Off
Versions: 1 2 3 4 5 6 7 8 9 10 11 12 13 14 15 16 17 18 19 20 21 22 23 24 25 26 27 28 29 30 31 32 33 34 35 36 37 38 39 40 41 42 43 44 45 46 47 48 49 50

681
ASUS41 KAKQ 191715
RWRAKQ

REGIONAL WEATHER ROUNDUP
NATIONAL WEATHER SERVICE WAKEFIELD VA
1200 PM EST MON FEB 19 2018

Note: "fair" indicates few or no clouds below 12,000 feet with no
significant weather and/or obstructions to visibility. * = Denotes
station may not report precipitation (e.g., rain,snow,etc.),
thunder or fog.

VAZ042-051-052>054-056-191800-
NORTHERN VIRGINIA

CITY           SKY/WX    TMP DP  RH WIND       PRES   REMARKS
WASH NATIONAL  CLOUDY    44  39  82 S9        30.46F
DULLES         DRIZZLE   41  40  96 S10       30.43F FOG
FORT BELVOIR   LGT RAIN  41  39  93 S5        30.45F
QUANTICO       CLOUDY    43  42  97 S7        30.47F FOG
FREDERICKSBRG* CLOUDY    43  43 100 S3        30.45F FOG
STAFFORD*      DRIZZLE   42  42 100 CALM      30.49F
WARRENTON      CLOUDY    43  39  86 S5        30.43F FOG
CULPEPER*      CLOUDY    43  41  91 S5        30.44F FOG
MANASSAS*      LGT RAIN  42  41  96 S8        30.44F FOG
LEESBURG*      CLOUDY    41  41 100 S10       30.42F
WINCHESTER     CLOUDY    46  41  81 S9        30.36F
FRONT ROYAL*   PTSUNNY   52  45  76 SW7G16    30.33F
LURAY*         PTSUNNY   52  45  76 SW9       30.35F
$$

VAZ048-049-060>072-079>083-191800-
CENTRAL AND SOUTH CENTRAL VIRGINIA

CITY           SKY/WX    TMP DP  RH WIND       PRES   REMARKS
RICHMOND       LGT RAIN  44  43  96 S3        30.45F FOG
CHESTERFIELD*  LGT RAIN  44  43  96 S6        30.45F FOG
PETERSBURG*    LGT RAIN  45  43  93 CALM      30.47F
HANOVER        CLOUDY    44  43  96 S5        30.46F FOG
TAPPAHANNOCK*  LGT RAIN  47  47  97 MISG      30.46F
QUINTON*       CLOUDY    44  44 100 E5        30.45F FOG
CHARLOTTSVILLE CLOUDY    47  42  83 S7        30.41F
GORDONSVILLE*  CLOUDY    43  43 100 SW6       30.42F FOG
ORANGE*        CLOUDY    43  41  93 S6        30.43F FOG
LOUISA*        CLOUDY    42  41  97 S7        30.48F FOG
BUMPASS*       CLOUDY    41  40  95 SW5       30.45F
FARMVILLE*     CLOUDY   N/A N/A N/A S5        30.44F
CREWE*         CLOUDY    46  46 100 SE6       30.44F
FORT PICKETT*  CLOUDY    43  43 100 S5        30.45F
CHASE CITY*    CLOUDY    46  46 100 S3        30.45F
CLARKSVILLE*   CLOUDY    45  45 100 CALM      30.45F
SOUTH HILL*    CLOUDY    43  43 100 CALM      30.52F
LAWRENCEVILLE* CLOUDY    43  42  97 CALM      30.46F
EMPORIA*       DRIZZLE   43  43 100 W3        30.48F
$$

VAZ088>098-191800-
SOUTHEAST VIRGINIA

CITY           SKY/WX    TMP DP  RH WIND       PRES   REMARKS
NORFOLK        CLOUDY    55  53  93 SE8       30.44F
VIRGINIA BEACH CLOUDY    53  50  89 SE8       30.44F FOG
NORFOLK NAVAL  LGT RAIN  55  52  89 SE7       30.45F FOG
WEST POINT*    CLOUDY    48  47  95 CALM      30.47F
SALUDA*        CLOUDY    51  51 100 SE6       30.46F
NEWPORT NEWS   LGT RAIN  52  50  93 SE6       30.45F FOG
LANGLEY AFB    CLOUDY    52  52 100 SE7       30.44F FOG
FORT EUSTIS    DRIZZLE   52  51  96 SE5       30.42F
WILLIAMSBURG*  CLOUDY    52  48  87 CALM      30.46F
HR EXEC AP*    LGT RAIN  54  53  97 SE8       30.45F FOG
FRANKLIN*      DRIZZLE   51  50  97 CALM      30.46S
US460-WAKEFLD  LGT RAIN  50  50 100 CALM      30.45F FOG
$$

VAZ020-022-025-037-045-191800-
WEST CENTRAL AND SOUTHWEST VIRGINIA

CITY           SKY/WX    TMP DP  RH WIND       PRES   REMARKS
STAUNTON*      CLOUDY    50  44  81 S3        30.39F
WAYNESBORO*    CLOUDY    54  47  80 W3        30.36F
HOT SPRINGS VA CLOUDY    49  49 100 S7        30.35F FOG
LYNCHBURG      FOG       41  41 100 S3        30.42F VSB 1
DANVILLE       CLOUDY    44  44 100 CALM      30.45F
SOUTH BOSTON*  CLOUDY    44  43  96 CALM      30.46F
MARTINSVILLE   CLOUDY    45  43  95 CALM      30.46F FOG
ROANOKE        CLOUDY    42  41  96 CALM      30.44F
BLACKSBURG     CLOUDY    47  46  96 CALM      30.41F
DUBLIN*        CLOUDY    47  46  96 CALM      30.39F
MARION*        FAIR      56  23  27 NE8       30.37F
HILLSVILLE*    CLOUDY    48  47  95 S6        30.37F
RICHLANDS*     FAIR      64  51  64 SW9G17    30.32S
WISE*          FAIR      63  52  67 S16G23    30.31S
ABINGDON*      PTSUNNY   63  54  71 CALM      30.32F
$$

MDZ021>025-VAZ099-100-191800-
SOUTHERN MARYLAND AND THE DELMARVA PENINSULA

CITY           SKY/WX    TMP DP  RH WIND       PRES   REMARKS
PATUXENT RIVER CLOUDY    43  42  97 SE7       30.45F
BAY BRIDGE APT NOT AVBL
LEONARDTOWN    CLOUDY    46  43  87 SE3       30.47F
DOVER          DRIZZLE   49  43  78 S5        30.46F FOG
GEORGETOWN     CLOUDY    54  45  71 S9        30.47F
EASTON         PTSUNNY   48  41  76 S5        30.50F
CAMBRIDGE      CLOUDY    48  45  87 S6        30.47F
SALISBURY      CLOUDY    53  47  79 S7        30.46F
OCEAN CITY     CLOUDY    50  45  83 VRB5      30.49F
WALLOPS ISLAND CLOUDY    53  48  83 S10       30.48F
ACCOMACK*      CLOUDY    53  51  91 S9        30.46F
$$

NCZ012>017-030>032-191800-
NORTH CENTRAL AND EASTERN NORTH CAROLINA

CITY           SKY/WX    TMP DP  RH WIND       PRES   REMARKS
ROANOKE RAPIDS NOT AVBL
RALEIGH        CLOUDY    45  44  97 N5        30.46F FOG
ELIZABETH CITY LGT RAIN  54  54 100 SE7       30.45F FOG
AHOSKIE*       DRIZZLE   46  46 100 CALM      30.46F
EDENTON*       CLOUDY    55  53  94 E6        30.45F
CURRITUCK*     CLOUDY    53  51  95 SE6       30.46F FOG
KILL DEVIL HLS CLOUDY   N/A N/A N/A SE5       30.45F
MANTEO         CLOUDY    56  54  91 SE8       30.47F
CAPE HATTERAS  CLOUDY    64  58  80 SE12      30.45F
TARBORO*       NOT AVBL
GOLDSBORO      CLOUDY    53  47  80 NW3       30.43F
WASHINGTON     CLOUDY    54  51  90 CALM      30.45S
GREENVILLE     CLOUDY    50  48  93 CALM      30.45F
NEW BERN       CLOUDY    70  61  73 SE10      30.43F
WILMINGTON     PTSUNNY   74  64  71 S10       30.42F
$$

VAZ048-191800-
ELSEWHERE

CITY           SKY/WX    TMP DP  RH WIND       PRES   REMARKS
HARRISBURG PA  CLOUDY    43  34  70 SE10      30.39F
BALTIMORE      CLOUDY    42  39  89 S5        30.45F
ANNAPOLIS      CLOUDY    42  41  96 SE7       30.46F
ANDREWS AFB    CLOUDY    44  38  82 S8        30.44F
PHILADELPHIA   CLOUDY    47  37  68 SW8       30.47F
HENDERSON NC   CLOUDY    41  40  95 CALM      30.45F
GREENSBORO     CLOUDY    46  46 100 CALM      30.43F FOG
ROCKY MOUNT    CLOUDY    47  45  93 N3        30.46F FOG
$$

VAZ100-191800-
MARINE

STATION/POSITION TIME  TEMP    WIND        PRES    WAVE   SWELL
                       AIR SEA DIR/SP/G            HT/PER HT/PER
                 (UTC) (F)     (DEG/KT/KT) (MB)    (FT/S) (FT/S)
BRANDYWINE LGT   1642   43     160/  7/  8 1032.4F
CAPE MAY NJ      1642   48 41  170/  7/  9 1031.7F
LEWES DE         1642   53 41  190/  4/  8 1031.8F
15NM E FENWICK I 1650   46 43  160/  4/  4 1032.4F   2/10   2/10
OCEAN-CITY-INLET 1642   45 40  220/  9/ 10 1032.9F
WACHAPREAGUE VA  1642   49 46  190/  6/  8 1031.9F
THOMAS POINT MD  1700   39 38     CALM       N/A
GOOSES REEF MD   1700   40 38  140/  6/  6 1032.0    0
COVE POINT MD    1642   40     170/  7/  8 1032.2F
SOLOMONS ISLAND  1642   41 40   90/  6/  7 1031.1F
BISHOPS HEAD MD  1642   43 44  140/  4/  5 1032.2F
POTOMAC MD       1700   45 42   20/  8/ 10 1030.9    1
CAMBRIDGE MD     1642   48 43              1032.4F
LEWISETTA VA     1642   49 44  220/  2/  3 1031.6F
RAPPAHANNOCK LGT 1636          140/ 11/ 12 1032.1F
STINGRAY PT      1700   44 42  200/  6/  8 1032.3    0
YORK RVR RNG VA  1642   44     160/ 10/ 11 1031.9F
YORKTOWN VA      1636   50 45  140/  4/  7 1031.1F
DOMINION TERM VA 1636   51     110/  5/  7 1031.4F
KIPTOPEKE VA     1636      43  150/ 12/ 14   N/A
CAPE HENRY VA    1636   48     140/ 11/ 13   N/A
S CRANEY ISL VA  1636   52     150/  5/  7 1031.0F
CAPE HENRY BUOY  1700      43                N/A     2/ 9
1ST LANDING BUOY 1700   45 41  130/ 10/ 10 1031.1    1/ 3
CAPE CHARLES BUO 1651      43                N/A     2/11
64NM E OF VA BCH 1650   54 50  160/  8/ 10 1032.2F   2/ 9   2/ 9
DUCK PIER NC     1636   49 44  110/  4/  6 1031.4F
44056 DUCK FRF   1700      45                N/A     2/ 5
OREGON INLET NC  1636   52 47  110/  5/  9 1031.7F
HATTERAS NC      1636   64 56  150/ 13/ 16 1031.1S
DIAMOND SHLS NC  1650   68 72  140/ 17/ 21 1031.7F   6/ 9   3/ 9
CAPE LOOKOUT NC  1700          150/  7/  8 1030.7F
$$




USA.gov is the U.S. government's official web portal to all federal, state and local government web resources and services.